TimeAKDT,TemperatureF,Dew PointF,Humidity,Sea Level PressureIn,VisibilityMPH,Wind Direction,Wind SpeedMPH,Gust SpeedMPH,PrecipitationIn,Events,Conditions,WindDirDegrees,DateUTC
12:16 AM,42.8,39.2,87,30.22,10.0,Calm,Calm,-,N/A,,Overcast,0,2012-10-08 08:16:00
12:36 AM,-9999,-9999,N/A,30.21,10.0,Calm,Calm,-,N/A,,Overcast,0,2012-10-08 08:36:00
12:56 AM,44.6,39.2,81,30.22,10.0,Calm,Calm,-,N/A,,Overcast,0,2012-10-08 08:56:00
1:16 AM,44.6,39.2,81,30.22,10.0,Calm,Calm,-,N/A,,Overcast,0,2012-10-08 09:16:00
1:36 AM,44.6,39.2,81,30.22,10.0,Calm,Calm,-,N/A,,Overcast,0,2012-10-08 09:36:00
1:56 AM,44.6,39.2,81,30.22,10.0,Calm,Calm,-,N/A,,Overcast,0,2012-10-08 09:56:00
2:16 AM,44.6,39.2,81,30.21,10.0,Calm,Calm,-,N/A,,Overcast,0,2012-10-08 10:16:00
2:36 AM,44.6,39.2,81,30.21,10.0,Calm,Calm,-,N/A,,Overcast,0,2012-10-08 10:36:00
2:56 AM,44.6,39.2,81,30.21,10.0,Calm,Calm,-,N/A,,Overcast,0,2012-10-08 10:56:00
3:16 AM,42.8,39.2,87,30.21,10.0,Calm,Calm,-,N/A,,Overcast,0,2012-10-08 11:16:00
3:56 AM,44.6,39.2,81,30.21,10.0,Calm,Calm,-,N/A,,Overcast,0,2012-10-08 11:56:00
4:16 AM,44.6,39.2,81,30.20,10.0,Calm,Calm,-,N/A,,Overcast,0,2012-10-08 12:16:00
4:36 AM,44.6,39.2,81,30.20,10.0,Calm,Calm,-,N/A,,Overcast,0,2012-10-08 12:36:00
4:56 AM,44.6,39.2,81,30.20,10.0,Calm,Calm,-,N/A,,Overcast,0,2012-10-08 12:56:00
5:16 AM,44.6,41.0,87,30.20,10.0,Calm,Calm,-,N/A,,Overcast,0,2012-10-08 13:16:00
5:36 AM,44.6,41.0,87,30.19,10.0,Calm,Calm,-,N/A,,Overcast,0,2012-10-08 13:36:00
5:56 AM,44.6,39.2,81,30.19,10.0,Calm,Calm,-,N/A,,Overcast,0,2012-10-08 13:56:00
6:16 AM,44.6,39.2,81,30.19,10.0,Calm,Calm,-,N/A,,Overcast,0,2012-10-08 14:16:00
6:36 AM,44.6,39.2,81,30.19,10.0,NNW,5.8,-,N/A,,Overcast,340,2012-10-08 14:36:00
6:56 AM,44.6,39.2,81,30.19,10.0,NNW,4.6,-,N/A,,Overcast,330,2012-10-08 14:56:00
7:16 AM,44.6,41.0,87,30.19,10.0,WNW,3.5,-,N/A,,Overcast,300,2012-10-08 15:16:00
7:36 AM,44.6,41.0,87,30.19,10.0,NNW,4.6,-,N/A,,Overcast,340,2012-10-08 15:36:00
7:56 AM,44.6,41.0,87,30.19,10.0,Calm,Calm,-,N/A,,Overcast,0,2012-10-08 15:56:00
8:16 AM,44.6,41.0,87,30.19,10.0,Calm,Calm,-,N/A,,Overcast,0,2012-10-08 16:16:00
8:36 AM,46.4,42.8,87,30.19,10.0,WNW,3.5,-,N/A,,Overcast,300,2012-10-08 16:36:00
8:56 AM,46.4,42.8,87,30.19,10.0,NW,4.6,-,N/A,,Overcast,310,2012-10-08 16:56:00
9:16 AM,46.4,42.8,87,30.19,10.0,NNW,5.8,-,N/A,,Overcast,330,2012-10-08 17:16:00
9:36 AM,46.4,42.8,87,30.19,10.0,NNW,6.9,-,N/A,,Overcast,340,2012-10-08 17:36:00
9:56 AM,48.2,42.8,82,30.18,10.0,NW,5.8,-,N/A,,Overcast,320,2012-10-08 17:56:00
10:16 AM,48.2,42.8,82,30.18,10.0,NNW,4.6,-,N/A,,Overcast,330,2012-10-08 18:16:00
10:36 AM,48.2,44.6,87,30.19,10.0,NNW,4.6,-,N/A,,Mostly Cloudy,340,2012-10-08 18:36:00
10:56 AM,51.8,44.6,76,30.18,10.0,NW,3.5,-,N/A,,Scattered Clouds,320,2012-10-08 18:56:00
11:16 AM,-9999,-9999,N/A,30.17,10.0,Calm,Calm,-,N/A,,Scattered Clouds,0,2012-10-08 19:16:00
11:36 AM,-9999,-9999,N/A,30.17,10.0,Calm,Calm,-,N/A,,Clear,0,2012-10-08 19:36:00
11:56 AM,-9999,-9999,N/A,30.17,10.0,WNW,4.6,-,N/A,,Scattered Clouds,290,2012-10-08 19:56:00
12:16 PM,53.6,44.6,72,30.16,10.0,West,4.6,-,N/A,,Mostly Cloudy,280,2012-10-08 20:16:00
12:36 PM,53.6,44.6,72,30.15,10.0,WNW,5.8,-,N/A,,Mostly Cloudy,300,2012-10-08 20:36:00
12:56 PM,53.6,44.6,72,30.15,10.0,West,6.9,-,N/A,,Partly Cloudy,280,2012-10-08 20:56:00
1:16 PM,53.6,44.6,72,30.15,10.0,West,6.9,-,N/A,,Scattered Clouds,280,2012-10-08 21:16:00
1:36 PM,55.4,44.6,67,30.14,10.0,WNW,6.9,-,N/A,,Overcast,290,2012-10-08 21:36:00
1:56 PM,53.6,44.6,72,30.15,10.0,NW,4.6,-,N/A,,Overcast,310,2012-10-08 21:56:00
2:16 PM,53.6,42.8,67,30.14,10.0,NNW,6.9,-,N/A,,Overcast,340,2012-10-08 22:16:00
2:36 PM,55.4,44.6,67,30.14,10.0,NNW,6.9,-,N/A,,Overcast,330,2012-10-08 22:36:00
2:56 PM,55.4,42.8,63,30.14,10.0,West,5.8,-,N/A,,Mostly Cloudy,280,2012-10-08 22:56:00
3:16 PM,53.6,42.8,67,30.13,10.0,NW,6.9,-,N/A,,Mostly Cloudy,320,2012-10-08 23:16:00
3:36 PM,53.6,42.8,67,30.13,10.0,WNW,6.9,-,N/A,,Mostly Cloudy,300,2012-10-08 23:36:00
3:56 PM,53.6,42.8,67,30.13,10.0,West,4.6,-,N/A,,Mostly Cloudy,280,2012-10-08 23:56:00
4:36 PM,51.8,42.8,71,30.12,10.0,NW,4.6,-,N/A,,Mostly Cloudy,320,2012-10-09 00:36:00
4:56 PM,51.8,42.8,71,30.12,10.0,NW,4.6,-,N/A,,Mostly Cloudy,310,2012-10-09 00:56:00
5:16 PM,51.8,42.8,71,30.11,10.0,Calm,Calm,-,N/A,,Overcast,0,2012-10-09 01:16:00
5:56 PM,50.0,42.8,76,30.11,10.0,NNW,3.5,-,N/A,,Mostly Cloudy,340,2012-10-09 01:56:00
6:16 PM,50.0,42.8,76,30.11,10.0,Calm,Calm,-,N/A,,Mostly Cloudy,0,2012-10-09 02:16:00
6:36 PM,48.2,42.8,82,30.11,10.0,Calm,Calm,-,N/A,,Scattered Clouds,0,2012-10-09 02:36:00
6:56 PM,48.2,42.8,82,30.11,10.0,Calm,Calm,-,N/A,,Scattered Clouds,0,2012-10-09 02:56:00
7:16 PM,46.4,42.8,87,30.11,10.0,Calm,Calm,-,N/A,,Mostly Cloudy,0,2012-10-09 03:16:00
7:36 PM,46.4,41.0,81,30.10,10.0,Calm,Calm,-,N/A,,Overcast,0,2012-10-09 03:36:00
7:56 PM,46.4,41.0,81,30.10,10.0,Calm,Calm,-,N/A,,Overcast,0,2012-10-09 03:56:00
8:16 PM,46.4,42.8,87,30.10,10.0,Calm,Calm,-,N/A,,Overcast,0,2012-10-09 04:16:00
8:36 PM,46.4,42.8,87,30.11,10.0,Calm,Calm,-,N/A,,Mostly Cloudy,0,2012-10-09 04:36:00
8:56 PM,46.4,41.0,81,30.10,10.0,Calm,Calm,-,N/A,,Mostly Cloudy,0,2012-10-09 04:56:00
9:16 PM,44.6,39.2,81,30.11,10.0,NNE,3.5,-,N/A,,Mostly Cloudy,20,2012-10-09 05:16:00
9:36 PM,44.6,41.0,87,30.11,10.0,Calm,Calm,-,N/A,,Overcast,0,2012-10-09 05:36:00
9:56 PM,44.6,41.0,87,30.11,10.0,Calm,Calm,-,N/A,,Overcast,0,2012-10-09 05:56:00
10:16 PM,46.4,41.0,81,30.11,7.0,Calm,Calm,-,N/A,,Overcast,0,2012-10-09 06:16:00
10:36 PM,46.4,42.8,87,30.11,9.0,Calm,Calm,-,N/A,,Overcast,0,2012-10-09 06:36:00
10:56 PM,46.4,41.0,81,30.10,10.0,North,4.6,-,N/A,,Overcast,10,2012-10-09 06:56:00
11:16 PM,44.6,42.8,93,30.10,10.0,Calm,Calm,-,N/A,,Overcast,0,2012-10-09 07:16:00
11:36 PM,44.6,41.0,87,30.10,10.0,WSW,3.5,-,N/A,,Overcast,250,2012-10-09 07:36:00
11:56 PM,44.6,41.0,87,30.09,10.0,North,4.6,-,N/A,,Overcast,360,2012-10-09 07:56:00